Location: ??????
(41.3164°N, 22.6615°E)
Time: 02:17:32
(UTC+00:00)

BEESAT 2 - Pass Details

Date: 30 June 2022
Orbit: 481 x 508 km, 64.9° (Epoch: 07 August)

Event Time Altitude Azimuth Distance (km) Brightness Sun altitude
Rises 19:00:27 0° 318° (NW) 2,624 ? -8.9°
Reaches altitude 10° 19:02:46 10° 309° (NW) 1,735 ? -9.2°
Maximum altitude 19:06:15 33° 245° (WSW) 882 ? -9.7°
Drops below altitude 10° 19:09:43 10° 180° (S) 1,721 ? -10.2°
Enters shadow 19:10:23 - 177° (S) 1,963 ? -10.3°
